Hourly Weather Montargis

Today, 2 December, Wednesday

Time Temperature Precipitation Wind Pressure Humidity
00:00 +4°C° 0 mm 4 mps 755 mmHg 85%
01:00 +5°C° 0.3 mm 4 mps 755 mmHg 86%
02:00 +5°C° 0.3 mm 5 mps 754 mmHg 88%
03:00 +5°C° 0.3 mm 5 mps 754 mmHg 89%
04:00 +5°C° 0.1 mm 4 mps 754 mmHg 90%
05:00 +5°C° 0.1 mm 4 mps 754 mmHg 90%
06:00 +5°C° 0.1 mm 4 mps 754 mmHg 91%
07:00 +5°C° 0 mm 4 mps 754 mmHg 90%
08:00 +5°C° 0 mm 3 mps 754 mmHg 90%
09:00 +6°C° 0 mm 2 mps 754 mmHg 89%
10:00 +7°C° 0 mm 2 mps 754 mmHg 86%
11:00 +7°C° 0 mm 2 mps 754 mmHg 84%
12:00 +7°C° 0 mm 2 mps 753 mmHg 81%
13:00 +7°C° 0 mm 2 mps 753 mmHg 83%
14:00 +7°C° 0 mm 2 mps 753 mmHg 84%
15:00 +7°C° 0 mm 2 mps 753 mmHg 85%
16:00 +7°C° 0 mm 2 mps 753 mmHg 87%
17:00 +6°C° 0 mm 2 mps 752 mmHg 88%
18:00 +6°C° 0 mm 2 mps 752 mmHg 89%
19:00 +6°C° 0 mm 2 mps 752 mmHg 89%
20:00 +6°C° 0 mm 2 mps 752 mmHg 88%
21:00 +6°C° 0 mm 2 mps 752 mmHg 88%
22:00 +4°C° 0 mm 3 mps 751 mmHg 88%
23:00 +4°C° 0 mm 3 mps 750 mmHg 88%

Tomorrow, 3 December, Thursday

Time Temperature Precipitation Wind Pressure Humidity
00:00 +4°C° 0 mm 3 mps 750 mmHg 89%
01:00 +4°C° 0 mm 4 mps 749 mmHg 88%
02:00 +4°C° 0 mm 4 mps 748 mmHg 87%
03:00 +3°C° 0 mm 5 mps 748 mmHg 86%
04:00 +4°C° 0.1 mm 4 mps 747 mmHg 88%
05:00 +4°C° 0.1 mm 4 mps 746 mmHg 89%
06:00 +4°C° 0.1 mm 4 mps 746 mmHg 91%
07:00 +5°C° 0 mm 4 mps 745 mmHg 91%
08:00 +5°C° 0 mm 4 mps 745 mmHg 91%
09:00 +5°C° 0 mm 4 mps 744 mmHg 91%
10:00 +5°C° 0.1 mm 4 mps 743 mmHg 89%
11:00 +6°C° 0.1 mm 5 mps 742 mmHg 87%
12:00 +6°C° 0.1 mm 5 mps 742 mmHg 86%
13:00 +6°C° 0.3 mm 5 mps 740 mmHg 85%
14:00 +6°C° 0.3 mm 5 mps 739 mmHg 85%
15:00 +5°C° 0.3 mm 5 mps 738 mmHg 84%
16:00 +4°C° 0.6 mm 6 mps 737 mmHg 86%
17:00 +5°C° 0.6 mm 7 mps 735 mmHg 87%
18:00 +5°C° 0.6 mm 7 mps 734 mmHg 89%
19:00 +5°C° 0.6 mm 8 mps 733 mmHg 89%
20:00 +5°C° 0.6 mm 8 mps 732 mmHg 88%
21:00 +5°C° 0.6 mm 8 mps 731 mmHg 87%
22:00 +5°C° 1.5 mm 8 mps 730 mmHg 87%
23:00 +5°C° 1.5 mm 8 mps 729 mmHg 87%

Day after tomorrow, 4 December, Friday

Time Temperature Precipitation Wind Pressure Humidity
00:00 +5°C° 1.5 mm 8 mps 728 mmHg 87%
01:00 +5°C° 1 mm 9 mps 728 mmHg 87%
02:00 +5°C° 1 mm 10 mps 727 mmHg 86%
03:00 +5°C° 1 mm 10 mps 726 mmHg 85%
04:00 +5°C° 0.6 mm 9 mps 726 mmHg 84%
05:00 +3°C° 0.6 mm 9 mps 726 mmHg 84%
06:00 +4°C° 0.6 mm 8 mps 725 mmHg 83%
07:00 +4°C° 0.1 mm 8 mps 726 mmHg 82%
08:00 +4°C° 0.1 mm 8 mps 727 mmHg 82%
09:00 +2°C° 0.1 mm 8 mps 727 mmHg 81%
10:00 +2°C° 0.1 mm 8 mps 728 mmHg 80%
11:00 +4°C° 0.1 mm 8 mps 728 mmHg 79%
12:00 +4°C° 0.1 mm 8 mps 728 mmHg 78%
13:00 +4°C° 0.1 mm 7 mps 729 mmHg 77%
14:00 +4°C° 0.1 mm 6 mps 729 mmHg 75%
15:00 +5°C° 0.1 mm 5 mps 729 mmHg 73%
16:00 +4°C° 0.1 mm 4 mps 730 mmHg 78%
17:00 +3°C° 0.1 mm 4 mps 731 mmHg 82%
18:00 +2°C° 0.1 mm 3 mps 732 mmHg 86%
19:00 +2°C° 0 mm 3 mps 732 mmHg 87%
20:00 +1°C° 0 mm 3 mps 732 mmHg 88%
21:00 +1°C° 0 mm 3 mps 733 mmHg 89%
22:00 +1°C° 0 mm 3 mps 733 mmHg 90%
23:00 +2°C° 0 mm 2 mps 733 mmHg 90%

5 December, Saturday

Time Temperature Precipitation Wind Pressure Humidity
00:00 +1°C° 0 mm 2 mps 733 mmHg 91%
01:00 +1°C° 0 mm 2 mps 733 mmHg 92%
02:00 0°C° 0 mm 3 mps 734 mmHg 93%
03:00 0°C° 0 mm 3 mps 734 mmHg 94%
04:00 -1°C° 0 mm 3 mps 734 mmHg 94%
05:00 -1°C° 0 mm 3 mps 734 mmHg 94%
06:00 -1°C° 0 mm 3 mps 734 mmHg 94%
07:00 0°C° 0 mm 3 mps 734 mmHg 92%
08:00 0°C° 0 mm 3 mps 735 mmHg 90%
09:00 +1°C° 0 mm 3 mps 735 mmHg 87%
10:00 +1°C° 0.1 mm 4 mps 735 mmHg 86%
11:00 +1°C° 0.1 mm 4 mps 735 mmHg 85%
12:00 +3°C° 0.1 mm 4 mps 735 mmHg 84%
13:00 +3°C° 0 mm 4 mps 735 mmHg 83%
14:00 +3°C° 0 mm 4 mps 735 mmHg 83%
15:00 +4°C° 0 mm 4 mps 735 mmHg 82%
16:00 +3°C° 0 mm 4 mps 735 mmHg 85%
17:00 +2°C° 0 mm 3 mps 735 mmHg 87%
18:00 +1°C° 0 mm 3 mps 734 mmHg 90%
19:00 0°C° 0 mm 4 mps 734 mmHg 88%
20:00 0°C° 0 mm 4 mps 734 mmHg 86%
21:00 0°C° 0 mm 4 mps 734 mmHg 85%
22:00 0°C° 0.9 mm 5 mps 733 mmHg 87%
23:00 0°C° 0.9 mm 5 mps 733 mmHg 90%

6 December, Sunday

Time Temperature Precipitation Wind Pressure Humidity
00:00 -1°C° 0.9 mm 6 mps 733 mmHg 93%
01:00 0°C° 1 mm 5 mps 733 mmHg 94%
02:00 0°C° 1 mm 5 mps 732 mmHg 95%
03:00 0°C° 1 mm 4 mps 732 mmHg 96%
04:00 0°C° 0.3 mm 4 mps 733 mmHg 96%
05:00 +1°C° 0.3 mm 3 mps 733 mmHg 97%
06:00 +1°C° 0.3 mm 3 mps 733 mmHg 97%
07:00 +1°C° 0.4 mm 3 mps 733 mmHg 97%
08:00 0°C° 0.4 mm 4 mps 734 mmHg 97%
09:00 0°C° 0.4 mm 5 mps 734 mmHg 96%
10:00 0°C° 0.2 mm 5 mps 735 mmHg 96%
11:00 0°C° 0.2 mm 5 mps 735 mmHg 96%
12:00 0°C° 0.2 mm 5 mps 735 mmHg 95%
13:00 0°C° 0.1 mm 5 mps 736 mmHg 95%
14:00 0°C° 0.1 mm 5 mps 736 mmHg 96%
15:00 0°C° 0.1 mm 5 mps 736 mmHg 96%
16:00 0°C° 0.1 mm 5 mps 737 mmHg 96%
17:00 0°C° 0.1 mm 4 mps 738 mmHg 96%
18:00 0°C° 0.1 mm 4 mps 738 mmHg 96%
19:00 0°C° 0.1 mm 4 mps 739 mmHg 95%
20:00 +1°C° 0.1 mm 3 mps 739 mmHg 94%
21:00 +1°C° 0.1 mm 3 mps 740 mmHg 93%
22:00 +1°C° 0 mm 3 mps 741 mmHg 94%
23:00 0°C° 0 mm 3 mps 741 mmHg 95%

7 December, Monday

Time Temperature Precipitation Wind Pressure Humidity
00:00 0°C° 0 mm 3 mps 741 mmHg 96%
01:00 -1°C° 0 mm 4 mps 742 mmHg 96%
02:00 -1°C° 0 mm 4 mps 742 mmHg 95%
03:00 -1°C° 0 mm 4 mps 742 mmHg 95%
04:00 -1°C° 0 mm 5 mps 742 mmHg 94%
05:00 -1°C° 0 mm 5 mps 743 mmHg 93%
06:00 -1°C° 0 mm 5 mps 743 mmHg 92%
07:00 -1°C° 0 mm 6 mps 743 mmHg 90%
08:00 -1°C° 0 mm 6 mps 743 mmHg 87%
09:00 -1°C° 0 mm 6 mps 743 mmHg 84%
10:00 0°C° 0 mm 7 mps 744 mmHg 83%
11:00 +2°C° 0 mm 7 mps 744 mmHg 81%
12:00 +3°C° 0 mm 7 mps 744 mmHg 80%
13:00 +3°C° 0.1 mm 7 mps 744 mmHg 84%
14:00 +2°C° 0.1 mm 6 mps 744 mmHg 88%
15:00 +2°C° 0.1 mm 6 mps 744 mmHg 92%
16:00 +2°C° 0.1 mm 5 mps 744 mmHg 92%
17:00 +2°C° 0.1 mm 5 mps 744 mmHg 92%
18:00 +3°C° 0.1 mm 5 mps 744 mmHg 92%
19:00 +3°C° 0 mm 4 mps 744 mmHg 92%
20:00 +3°C° 0 mm 4 mps 744 mmHg 93%
21:00 +3°C° 0 mm 4 mps 744 mmHg 94%
22:00 +3°C° 0 mm 4 mps 744 mmHg 93%
23:00 +3°C° 0 mm 4 mps 743 mmHg 93%
Show more